When you browse on this site, cookies collect data to enhance your experience and personalize the content and advertising you see.
Visit our Privacy Policy to learn more. By continuing to use the site, you agree to this use of cookies and data.
  • In Portugal
  • List of Countries
  • For 7 days
  • Water Temperature
  • Satellite Maps
  • Weather Map
  • Weather Widgets
  • user-avatar
    Login

    Hourly Weather Kina

    Today, 20 June, Thursday

    Time Temperature Precipitation Wind Pressure Humidity
    00:00 +13°C° 0 mm 1 mps 619 mmHg 87%
    01:00 +13°C° 0 mm 1 mps 619 mmHg 88%
    02:00 +12°C° 0 mm 1 mps 619 mmHg 88%
    03:00 +12°C° 0 mm 1 mps 618 mmHg 89%
    04:00 +13°C° 0 mm 1 mps 619 mmHg 87%
    05:00 +15°C° 0 mm 1 mps 619 mmHg 85%
    06:00 +15°C° 0 mm 0 mps 620 mmHg 83%
    07:00 +18°C° 0.2 mm 1 mps 620 mmHg 78%
    08:00 +19°C° 0.2 mm 2 mps 621 mmHg 74%
    09:00 +20°C° 0 mm 2 mps 621 mmHg 70%
    10:00 +20°C° 1.2 mm 2 mps 621 mmHg 70%
    11:00 +20°C° 1.2 mm 2 mps 621 mmHg 71%
    12:00 +20°C° 1.2 mm 2 mps 621 mmHg 71%
    13:00 +20°C° 1.3 mm 2 mps 621 mmHg 71%
    14:00 +20°C° 1.3 mm 2 mps 621 mmHg 70%
    15:00 +20°C° 0 mm 2 mps 620 mmHg 69%
    16:00 +20°C° 0.6 mm 2 mps 620 mmHg 70%
    17:00 +19°C° 0.6 mm 2 mps 620 mmHg 71%
    18:00 +19°C° 0.6 mm 2 mps 620 mmHg 72%
    19:00 +18°C° 0.2 mm 1 mps 620 mmHg 76%
    20:00 +16°C° 0.2 mm 1 mps 619 mmHg 79%
    21:00 +13°C° 0.2 mm 0 mps 619 mmHg 82%
    22:00 +13°C° 0 mm 0 mps 619 mmHg 83%
    23:00 +14°C° 0 mm 1 mps 619 mmHg 83%

    Tomorrow, 21 June, Friday

    Time Temperature Precipitation Wind Pressure Humidity
    00:00 +14°C° 0 mm 1 mps 619 mmHg 83%
    01:00 +14°C° 0 mm 1 mps 619 mmHg 83%
    02:00 +13°C° 0 mm 1 mps 618 mmHg 83%
    03:00 +13°C° 0 mm 1 mps 618 mmHg 83%
    04:00 +14°C° 0 mm 1 mps 619 mmHg 82%
    05:00 +15°C° 0 mm 1 mps 619 mmHg 81%
    06:00 +16°C° 0 mm 1 mps 620 mmHg 80%
    07:00 +17°C° 0.3 mm 2 mps 620 mmHg 76%
    08:00 +18°C° 0.3 mm 2 mps 621 mmHg 71%
    09:00 +19°C° 0.3 mm 2 mps 621 mmHg 67%
    10:00 +19°C° 1 mm 2 mps 621 mmHg 67%
    11:00 +19°C° 1 mm 2 mps 621 mmHg 68%
    12:00 +19°C° 1 mm 2 mps 621 mmHg 69%
    13:00 +19°C° 1.2 mm 2 mps 621 mmHg 70%
    14:00 +19°C° 1.2 mm 2 mps 621 mmHg 71%
    15:00 +19°C° 1.2 mm 2 mps 621 mmHg 72%
    16:00 +19°C° 0.5 mm 2 mps 621 mmHg 74%
    17:00 +18°C° 0.5 mm 2 mps 621 mmHg 77%
    18:00 +18°C° 0.5 mm 2 mps 621 mmHg 80%
    19:00 +16°C° 0 mm 2 mps 620 mmHg 83%
    20:00 +15°C° 0 mm 2 mps 620 mmHg 86%
    21:00 +13°C° 0 mm 1 mps 620 mmHg 89%
    22:00 +13°C° 0 mm 1 mps 620 mmHg 88%
    23:00 +12°C° 0 mm 1 mps 620 mmHg 88%

    Day after tomorrow, 22 June, Saturday

    Time Temperature Precipitation Wind Pressure Humidity
    00:00 +12°C° 0 mm 1 mps 620 mmHg 87%
    01:00 +12°C° 0 mm 1 mps 620 mmHg 85%
    02:00 +12°C° 0 mm 1 mps 620 mmHg 83%
    03:00 +12°C° 0 mm 1 mps 619 mmHg 82%
    04:00 +13°C° 0 mm 1 mps 620 mmHg 78%
    05:00 +14°C° 0 mm 1 mps 621 mmHg 75%
    06:00 +16°C° 0 mm 1 mps 622 mmHg 72%
    07:00 +18°C° 0 mm 1 mps 622 mmHg 69%
    08:00 +20°C° 0 mm 1 mps 623 mmHg 65%
    09:00 +21°C° 0 mm 1 mps 624 mmHg 61%
    10:00 +21°C° 1 mm 2 mps 624 mmHg 64%
    11:00 +21°C° 1 mm 2 mps 624 mmHg 67%
    12:00 +21°C° 1 mm 2 mps 624 mmHg 69%
    13:00 +21°C° 1.6 mm 2 mps 623 mmHg 70%
    14:00 +21°C° 1.6 mm 2 mps 623 mmHg 70%
    15:00 +21°C° 1.6 mm 2 mps 623 mmHg 70%
    16:00 +21°C° 1 mm 2 mps 623 mmHg 72%
    17:00 +20°C° 1 mm 2 mps 623 mmHg 73%
    18:00 +21°C° 1 mm 1 mps 622 mmHg 75%
    19:00 +19°C° 0.1 mm 1 mps 622 mmHg 78%
    20:00 +18°C° 0.1 mm 1 mps 622 mmHg 81%
    21:00 +15°C° 0.1 mm 1 mps 621 mmHg 84%
    22:00 +15°C° 0 mm 1 mps 621 mmHg 84%
    23:00 +14°C° 0 mm 1 mps 621 mmHg 84%

    23 June, Sunday

    Time Temperature Precipitation Wind Pressure Humidity
    00:00 +14°C° 0 mm 1 mps 621 mmHg 84%
    01:00 +14°C° 0 mm 1 mps 621 mmHg 83%
    02:00 +14°C° 0 mm 1 mps 621 mmHg 82%
    03:00 +14°C° 0 mm 1 mps 621 mmHg 81%
    04:00 +15°C° 0 mm 1 mps 622 mmHg 77%
    05:00 +18°C° 0 mm 1 mps 622 mmHg 74%
    06:00 +19°C° 0 mm 1 mps 623 mmHg 70%
    07:00 +21°C° 0 mm 1 mps 624 mmHg 65%
    08:00 +22°C° 0 mm 1 mps 624 mmHg 59%
    09:00 +23°C° 0 mm 1 mps 624 mmHg 54%
    10:00 +24°C° 0.1 mm 2 mps 625 mmHg 54%
    11:00 +25°C° 0.1 mm 2 mps 625 mmHg 55%
    12:00 +25°C° 0.1 mm 3 mps 625 mmHg 55%
    13:00 +25°C° 0.3 mm 3 mps 625 mmHg 55%
    14:00 +25°C° 0.3 mm 2 mps 624 mmHg 54%
    15:00 +25°C° 0.3 mm 2 mps 624 mmHg 53%
    16:00 +25°C° 0.1 mm 2 mps 624 mmHg 56%
    17:00 +24°C° 0.1 mm 2 mps 624 mmHg 60%
    18:00 +24°C° 0.1 mm 1 mps 623 mmHg 63%
    19:00 +21°C° 0 mm 1 mps 623 mmHg 67%
    20:00 +19°C° 0 mm 1 mps 622 mmHg 71%
    21:00 +16°C° 0 mm 1 mps 622 mmHg 75%
    22:00 +16°C° 0 mm 1 mps 621 mmHg 75%
    23:00 +16°C° 0 mm 1 mps 621 mmHg 75%

    24 June, Monday

    Time Temperature Precipitation Wind Pressure Humidity
    00:00 +15°C° 0 mm 1 mps 621 mmHg 75%
    01:00 +15°C° 0 mm 1 mps 621 mmHg 74%
    02:00 +15°C° 0 mm 1 mps 621 mmHg 73%
    03:00 +15°C° 0 mm 1 mps 621 mmHg 72%
    04:00 +18°C° 0 mm 1 mps 622 mmHg 69%
    05:00 +19°C° 0 mm 1 mps 622 mmHg 66%
    06:00 +21°C° 0 mm 1 mps 623 mmHg 63%
    07:00 +22°C° 0 mm 1 mps 624 mmHg 59%
    08:00 +24°C° 0 mm 1 mps 624 mmHg 55%
    09:00 +25°C° 0 mm 2 mps 625 mmHg 51%
    10:00 +26°C° 0.4 mm 2 mps 625 mmHg 51%
    11:00 +26°C° 0.4 mm 2 mps 625 mmHg 52%
    12:00 +27°C° 0.4 mm 2 mps 625 mmHg 52%
    13:00 +27°C° 0.6 mm 2 mps 624 mmHg 53%
    14:00 +27°C° 0.6 mm 2 mps 624 mmHg 53%
    15:00 +26°C° 0.6 mm 2 mps 624 mmHg 53%
    16:00 +26°C° 0.5 mm 2 mps 624 mmHg 57%
    17:00 +25°C° 0.5 mm 2 mps 623 mmHg 60%
    18:00 +24°C° 0.5 mm 1 mps 623 mmHg 63%
    19:00 +22°C° 0.1 mm 1 mps 622 mmHg 67%
    20:00 +20°C° 0.1 mm 1 mps 622 mmHg 71%
    21:00 +18°C° 0.1 mm 1 mps 621 mmHg 75%
    22:00 +18°C° 0.1 mm 1 mps 621 mmHg 75%
    23:00 +16°C° 0.1 mm 1 mps 621 mmHg 75%

    25 June, Tuesday

    Time Temperature Precipitation Wind Pressure Humidity
    00:00 +16°C° 0.1 mm 1 mps 621 mmHg 74%
    01:00 +16°C° 0.1 mm 1 mps 622 mmHg 72%
    02:00 +16°C° 0.1 mm 1 mps 622 mmHg 70%
    03:00 +16°C° 0.1 mm 1 mps 622 mmHg 69%
    04:00 +18°C° 0 mm 1 mps 622 mmHg 66%
    05:00 +20°C° 0 mm 1 mps 623 mmHg 64%
    06:00 +21°C° 0 mm 1 mps 623 mmHg 62%
    07:00 +22°C° 0 mm 1 mps 624 mmHg 56%
    08:00 +23°C° 0 mm 2 mps 624 mmHg 51%
    09:00 +25°C° 0 mm 2 mps 625 mmHg 46%
    10:00 +25°C° 0.2 mm 2 mps 625 mmHg 47%
    11:00 +26°C° 0.2 mm 2 mps 625 mmHg 49%
    12:00 +26°C° 0.2 mm 3 mps 625 mmHg 50%
    13:00 +26°C° 0.5 mm 3 mps 625 mmHg 50%
    14:00 +26°C° 0.5 mm 3 mps 625 mmHg 49%
    15:00 +26°C° 0.5 mm 2 mps 624 mmHg 49%
    16:00 +25°C° 0.2 mm 2 mps 624 mmHg 52%
    17:00 +25°C° 0.2 mm 2 mps 624 mmHg 56%
    18:00 +24°C° 0.2 mm 1 mps 624 mmHg 59%
    19:00 +22°C° 0 mm 1 mps 623 mmHg 63%
    20:00 +19°C° 0 mm 1 mps 623 mmHg 68%
    21:00 +16°C° 0 mm 1 mps 622 mmHg 72%
    22:00 +16°C° 0 mm 1 mps 622 mmHg 73%
    23:00 +15°C° 0 mm 1 mps 621 mmHg 74%
    Show more